Location: *
(51.5000°N, 0.1100°W)
Time: 20:54:26
(UTC+00:00)

Cosmos 724 - Pass Details

Date: 25 May 2024
Orbit: 864 x 930 km, 65.6° (Epoch: 23 June)

Event Time Altitude Azimuth Distance (km) Brightness Sun altitude
Exits shadow 00:14:09 24° 214° (SW) 1,756 5.4 -17.4°
Maximum altitude 00:17:53 84° 128° (SE) 886 4.2 -17.4°
Drops below altitude 10° 00:23:44 10° 41° (NE) 2,522 7.5 -17.3°
Sets 00:26:12 0° 41° (NE) 3,459 8.3 -17.2°
